Find Starlink 1413

NORAD ID: 45689 Int'l Des: 2020-035 Owner: SPXS Country: US Constellation: starlink operational
LEOCIRCULAR

Live Position

Loading 3D Globe...

About Starlink 1413

Description loading...

Upcoming Passes

Passes for default location (London). Set your location on the main map for personalized predictions.

Altitude History

Loading altitude history...

Two-Line Element Set

1 45689U 20035AJ 26105.60356824 .00032006 00000-0 10699-2 0 9998
2 45689 53.1594 238.1002 0001568 50.6096 309.5043 15.30745573324545
Epoch: Apr 15, 2026 • Age: 30 hours

Current Status

Altitude 477.5 km
Velocity 7.63 km/s
Sub-Earth Point 47.12°N, 132.48°E
Launch Date Jun 4, 2020
Age 5.8 years
Type internet

Technical Details

Classification Payload
Mass 260.00 kg
Dry Mass 248.00 kg
Total Mass 260.00 kg
Length 0.20 m
Diameter 2.80 m
Span 9.00 m
Shape Box + pan
Manufacturer SPXS
Bus Type Starlink
Phase Status In Orbit
Owner/State SPXS/US

Most Searched